AAL9 KDCA-KPWM

Flight info

Callsign AAL9
Flight time N/A
Altitude 37000
Route SOOKI6 SWANN BROSS Q419 RBV Q22 LLUND BDR SCOGS3
Aircraft B738/M-SABDFGLRVWY/LB2

Departure

Time N/A
Airport Ronald Reagan Washington National Airport (KDCA)

Arrival

Time 2026-05-03 22:47
Airport Portland International Jetport (KPWM)
Time Latitude Longitude Altitude Speed Heading
2026-05-03 22:15 41.54857 -72.29153 30860 ft 496 kts 54°
2026-05-03 22:16 41.56046 -72.26560 30860 ft 496 kts 54°
2026-05-03 22:16 41.59638 -72.18719 30852 ft 497 kts 54°
2026-05-03 22:17 41.63220 -72.10877 30854 ft 498 kts 54°
2026-05-03 22:17 41.66817 -72.02984 30850 ft 498 kts 55°
2026-05-03 22:18 41.70428 -71.95036 30847 ft 499 kts 55°
2026-05-03 22:18 41.74015 -71.87118 30834 ft 498 kts 55°
2026-05-03 22:19 41.77599 -71.79191 30833 ft 503 kts 55°
2026-05-03 22:19 41.81216 -71.71173 30821 ft 505 kts 55°
2026-05-03 22:20 41.84787 -71.63119 30827 ft 505 kts 57°
2026-05-03 22:20 41.88011 -71.54724 30811 ft 506 kts 59°
2026-05-03 22:21 41.92045 -71.47231 30828 ft 491 kts 42°
2026-05-03 22:21 41.96943 -71.40917 30826 ft 489 kts 38°
2026-05-03 22:22 42.01841 -71.34885 30838 ft 490 kts 39°
2026-05-03 22:22 42.06777 -71.28520 30839 ft 491 kts 41°
2026-05-03 22:23 42.11601 -71.22010 30829 ft 491 kts 42°
2026-05-03 22:23 42.16369 -71.15421 30831 ft 491 kts 42°
2026-05-03 22:24 42.21100 -71.08825 30818 ft 490 kts 42°
2026-05-03 22:24 42.25820 -71.02222 30812 ft 490 kts 42°
2026-05-03 22:25 42.30552 -70.95590 30813 ft 490 kts 42°
2026-05-03 22:25 42.35258 -70.88985 30810 ft 490 kts 43°
2026-05-03 22:26 42.39990 -70.82369 30810 ft 490 kts 41°
2026-05-03 22:26 42.45183 -70.76590 30802 ft 482 kts 27°
2026-05-03 22:27 42.51213 -70.72647 30768 ft 474 kts 19°
2026-05-03 22:27 42.54202 -70.71008 30459 ft 454 kts 17°
2026-05-03 22:27 42.57074 -70.69498 29967 ft 438 kts 17°
2026-05-03 22:27 42.60808 -70.67567 29010 ft 426 kts 16°
2026-05-03 22:28 42.62625 -70.66625 28447 ft 422 kts 16°
2026-05-03 22:28 42.65348 -70.65198 27635 ft 415 kts 17°
2026-05-03 22:28 42.67998 -70.63786 26779 ft 410 kts 17°
2026-05-03 22:28 42.70608 -70.62296 25955 ft 404 kts 19°
2026-05-03 22:29 42.73135 -70.60750 25147 ft 398 kts 20°
2026-05-03 22:29 42.75619 -70.59180 24315 ft 392 kts 20°
2026-05-03 22:29 42.78066 -70.57616 23459 ft 386 kts 20°
2026-05-03 22:29 42.80459 -70.56084 22591 ft 380 kts 20°
2026-05-03 22:30 42.82792 -70.54594 21779 ft 373 kts 20°
2026-05-03 22:30 42.85114 -70.53114 20906 ft 368 kts 19°
2026-05-03 22:30 42.87431 -70.51642 20044 ft 362 kts 19°
2026-05-03 22:30 42.89679 -70.50215 19208 ft 356 kts 19°
2026-05-03 22:31 42.91893 -70.48811 18394 ft 350 kts 19°
2026-05-03 22:31 42.94072 -70.47430 17507 ft 346 kts 19°
2026-05-03 22:31 42.96220 -70.46071 16615 ft 342 kts 19°
2026-05-03 22:31 42.99062 -70.44271 15442 ft 336 kts 19°
2026-05-03 22:32 43.01139 -70.42954 14619 ft 331 kts 20°
2026-05-03 22:32 43.02524 -70.42016 14033 ft 331 kts 22°
2026-05-03 22:32 43.04483 -70.40453 13503 ft 319 kts 26°
2026-05-03 22:32 43.06335 -70.38826 13085 ft 324 kts 27°
2026-05-03 22:33 43.08239 -70.37122 12638 ft 329 kts 28°
2026-05-03 22:33 43.10101 -70.35463 12143 ft 327 kts 27°
2026-05-03 22:33 43.12035 -70.33754 11678 ft 323 kts 28°
2026-05-03 22:33 43.13901 -70.32118 11226 ft 320 kts 28°
2026-05-03 22:34 43.15785 -70.30475 10779 ft 316 kts 28°
2026-05-03 22:34 43.17601 -70.28889 10687 ft 309 kts 28°
2026-05-03 22:34 43.19396 -70.27312 10395 ft 305 kts 28°
2026-05-03 22:34 43.21186 -70.25741 10064 ft 307 kts 28°
2026-05-03 22:35 43.22968 -70.24174 9914 ft 294 kts 28°
2026-05-03 22:35 43.24622 -70.22714 9901 ft 279 kts 28°
2026-05-03 22:35 43.26241 -70.21298 9725 ft 270 kts 27°
2026-05-03 22:35 43.28332 -70.19504 9265 ft 267 kts 26°
2026-05-03 22:36 43.29391 -70.18597 9026 ft 267 kts 27°
2026-05-03 22:36 43.30955 -70.17252 8679 ft 270 kts 26°
2026-05-03 22:36 43.32563 -70.15880 8300 ft 271 kts 25°
2026-05-03 22:36 43.34179 -70.14578 7942 ft 268 kts 24°
2026-05-03 22:37 43.35788 -70.13322 7588 ft 265 kts 24°
2026-05-03 22:37 43.37370 -70.12090 7238 ft 263 kts 24°
2026-05-03 22:37 43.38953 -70.10854 6898 ft 261 kts 24°
2026-05-03 22:37 43.41040 -70.09211 6439 ft 259 kts 24°
2026-05-03 22:38 43.42081 -70.08388 6212 ft 258 kts 24°
2026-05-03 22:38 43.43632 -70.07162 5869 ft 257 kts 24°
2026-05-03 22:38 43.45187 -70.05933 5530 ft 256 kts 24°
2026-05-03 22:38 43.46722 -70.04722 5187 ft 254 kts 24°
2026-05-03 22:39 43.48228 -70.03534 4945 ft 250 kts 24°
2026-05-03 22:39 43.49714 -70.02357 4850 ft 243 kts 24°
2026-05-03 22:39 43.51155 -70.01205 4775 ft 234 kts 24°
2026-05-03 22:39 43.52986 -69.99736 4666 ft 222 kts 23°
2026-05-03 22:40 43.53873 -69.99031 4611 ft 217 kts 22°
2026-05-03 22:40 43.55215 -69.98289 4531 ft 203 kts
2026-05-03 22:40 43.56559 -69.98471 4360 ft 192 kts 335°
2026-05-03 22:40 43.57676 -69.99454 4092 ft 190 kts 320°
2026-05-03 22:41 43.58673 -70.00618 3857 ft 189 kts 320°
2026-05-03 22:41 43.59677 -70.01762 3643 ft 184 kts 321°
2026-05-03 22:41 43.60645 -70.02854 3397 ft 178 kts 321°
2026-05-03 22:41 43.61889 -70.04266 3117 ft 168 kts 320°
2026-05-03 22:42 43.62447 -70.04987 3029 ft 160 kts 312°
2026-05-03 22:42 43.62883 -70.06341 2915 ft 155 kts 281°
2026-05-03 22:42 43.62907 -70.07806 2795 ft 152 kts 279°
2026-05-03 22:42 43.62991 -70.09252 2673 ft 150 kts 283°
2026-05-03 22:43 43.63101 -70.10650 2560 ft 142 kts 283°
2026-05-03 22:43 43.63194 -70.11965 2388 ft 133 kts 282°
2026-05-03 22:43 43.63284 -70.13227 2246 ft 133 kts 283°
2026-05-03 22:43 43.63404 -70.14921 2060 ft 132 kts 282°
2026-05-03 22:44 43.63462 -70.15761 1976 ft 131 kts 282°
2026-05-03 22:44 43.63549 -70.17032 1849 ft 134 kts 282°
2026-05-03 22:44 43.63643 -70.18353 1725 ft 141 kts 282°
2026-05-03 22:44 43.63735 -70.19720 1604 ft 143 kts 281°
2026-05-03 22:45 43.63827 -70.21108 1362 ft 149 kts 281°
2026-05-03 22:45 43.63929 -70.22492 1154 ft 146 kts 281°
2026-05-03 22:45 43.64019 -70.23888 948 ft 145 kts 279°
2026-05-03 22:45 43.64103 -70.25273 753 ft 146 kts 280°
2026-05-03 22:46 43.64189 -70.26660 552 ft 142 kts 279°
2026-05-03 22:46 43.64272 -70.27984 345 ft 138 kts 278°
2026-05-03 22:46 43.64364 -70.29327 145 ft 140 kts 279°
2026-05-03 22:46 43.64451 -70.30596 51 ft 120 kts 275°
2026-05-03 22:47 43.64513 -70.31440 67 ft 56 kts 276°
2026-05-03 22:47 43.64540 -70.31863 69 ft 28 kts 276°
2026-05-03 22:47 43.64559 -70.32053 69 ft 14 kts 305°
2026-05-03 22:47 43.64644 -70.32067 69 ft 11 kts 47°
2026-05-03 22:48 43.64655 -70.32003 69 ft 10 kts 91°
2026-05-03 22:48 43.64648 -70.31877 70 ft 13 kts 96°
2026-05-03 22:48 43.64639 -70.31746 69 ft 13 kts 95°
2026-05-03 22:48 43.64629 -70.31611 69 ft 14 kts 97°
2026-05-03 22:49 43.64622 -70.31477 68 ft 14 kts 95°
2026-05-03 22:49 43.64611 -70.31337 65 ft 14 kts 95°
2026-05-03 22:49 43.64605 -70.31239 64 ft 8 kts 92°
2026-05-03 22:49 43.64644 -70.31184 63 ft 8 kts 17°
2026-05-03 22:50 43.64674 -70.31171 63 ft 0 kts 14°